Regional Weather Roundup
Issued by NWS

Home | Current Version | Previous Version | Graphics & Text | Print | Product List | Glossary Off
Versions: 1 2 3 4 5 6 7 8 9 10 11 12 13 14 15 16 17 18 19 20 21 22 23 24 25 26 27 28 29 30 31 32 33 34 35 36 37 38 39 40 41 42 43 44 45 46 47 48 49 50

000
ASUS43 KMKX 252110
RWRWI

WISCONSIN REGIONAL WEATHER ROUNDUP
NATIONAL WEATHER SERVICE MILWAUKEE/SULLIVAN WI
400 PM CDT WED APR 25 2018

NOTE: "FAIR" INDICATES FEW OR NO CLOUDS BELOW 12,000 FEET WITH NO
SIGNIFICANT WEATHER AND/OR OBSTRUCTIONS TO VISIBILITY.

WIZ001-002-006>008-014>016-023>028-252200-
NORTHWEST WISCONSIN

CITY           SKY/WX    TMP DP  RH WIND       PRES   REMARKS
SUPERIOR ARPT  FAIR      56  27  32 SW5       30.05F
ASHLAND        FAIR      52  29  41 N6        30.07F
HAYWARD        FAIR      57  23  26 VRB6      30.06F
SIREN          FAIR      57  22  25 SW7       30.07F
CUMBERLAND     FAIR      52  23  32 W5        30.08F
RICE LAKE      FAIR      54  25  31 W6        30.09F
CHETEK         FAIR      54  28  36 CALM      30.08F
LADYSMITH      FAIR      55  24  30 CALM      30.08F
EAU CLAIRE     FAIR      57  24  28 E3        30.06F
MENOMONIE      FAIR      58  24  26 SW3       30.08F
NEW RICHMOND   FAIR      57  22  25 NW3       30.09F
OSCEOLA        FAIR      57  23  26 N6        30.11F
$$

WIZ003>005-009-010-017-018-252200-
NORTH CENTRAL WISCONSIN

CITY           SKY/WX    TMP DP  RH WIND       PRES   REMARKS
MANITOWISH WTR FAIR      49  20  31 W7        30.04F
ARBOR VITAE    FAIR      52  20  28 NW6       30.05F
WOODRUFF       FAIR      52  20  28 NW6       30.05F
RHINELANDER    FAIR      53  22  29 W6        30.05F
EAGLE RIVER    FAIR      50  14  23 NW6       30.04F
LAND O LAKES   FAIR      49  17  28 CALM      30.06F
PHILLIPS       FAIR      53  23  30 NW5       30.05F
TOMAHAWK       FAIR      53  22  29 W8        30.05F
MEDFORD        FAIR      52  25  34 N6        30.05F
MERRILL        FAIR      55  23  28 N5        30.05F
$$

WIZ029-030-035-036-043>047-252200-
CENTRAL WISCONSIN

CITY           SKY/WX    TMP DP  RH WIND       PRES   REMARKS
WAUSAU         FAIR      55  24  30 N8        30.04F
MOSINEE        SUNNY     54  27  35 NW12      30.07F
MARSHFIELD     FAIR      55  30  38 NW8       30.05F
STEVENS POINT  FAIR      52  27  37 NW7       30.06F
WAUPACA        FAIR      58  26  29 W6        30.06F
WAUTOMA        FAIR      56  26  31 VRB7      30.06F
WISC RAPIDS    FAIR      56  29  35 NW12      30.07F
CAMP DOUGLAS   SUNNY     59  27  29 N7        30.05F
$$

WIZ011>013-019>022-031-037>040-048>050-252200-
NORTHEAST WISCONSIN

CITY           SKY/WX    TMP DP  RH WIND       PRES   REMARKS
ANTIGO         FAIR      52  28  40 N5        30.05F
SHAWANO        FAIR      56  25  30 CALM      30.04F
OCONTO         FAIR      49  30  48 SE6       30.06F
STURGEON BAY   FAIR      49  29  46 W6        30.06F
GREEN BAY      FAIR      54  33  45 NW8       30.06F
MANITOWOC      FAIR      51  31  46 NW12G18   30.07F
APPLETON       MOSUNNY   52  25  35 N7        30.05F
CLINTONVILLE   FAIR      56  26  31 W5        30.05F
OSHKOSH        FAIR      50  32  50 VRB7      30.07F
$$

WIZ032>034-041-042-053>061-252200-
SOUTHWEST WISCONSIN

CITY           SKY/WX    TMP DP  RH WIND       PRES   REMARKS
LA CROSSE      FAIR      60  29  30 W12       30.06F
SPARTA         FAIR      59  28  30 NE5       30.06F
VIROQUA        FAIR      57  32  38 NW8       30.05F
BOSCOBEL       FAIR      63  28  26 VRB6      30.04F
PRAIRIE DU CHI FAIR      61  18  19 NW5       30.05F
PLATTEVILLE    FAIR      61  31  32 N8        30.04F
$$

WIZ056-057-062-063-064-067-068-252200-
SOUTH CENTRAL WISCONSIN

CITY           SKY/WX    TMP DP  RH WIND       PRES   REMARKS
REEDSBURG      FAIR      57  29  34 NE5       30.04F
BARABOO/DELLS  FAIR      58  23  25 NE8       30.04F
LONE ROCK      FAIR      61  28  28 NE9       30.04F
MINERAL POINT  FAIR      63  23  22 N7        30.04F
MADISON        FAIR      60  30  32 N6        30.03F
MIDDLETON      FAIR      60  25  26 N6        30.04F
WATERTOWN      FAIR      57  29  34 N10       30.04F
MONROE         FAIR      61  28  29 N13       30.03F
JANESVILLE     MOSUNNY   61  28  29 N9        30.03F
$$

WIZ051-052-058>065-066-070>072-252200-
SOUTHEAST WISCONSIN

CITY           SKY/WX    TMP DP  RH WIND       PRES   REMARKS
MILWAUKEE      FAIR      45  31  58 NE15G24   30.08F
WAUKESHA       SUNNY     54  30  40 E12G18    30.06F
MILWAUKEE/TIMM SUNNY     46  25  42 E10G17    30.08F
RACINE         FAIR      44  31  60 NE17G26   30.09F
BURLINGTON     FAIR      55  32  42 SE10      30.04F
KENOSHA        FAIR      50  29  44 NE15      30.06F
FOND DU LAC    FAIR      51  32  48 NE12      30.07F
SHEBOYGAN      FAIR      48  33  56 NE12      30.06F
WEST BEND      FAIR      54  30  40 NE7       30.05F
JUNEAU         FAIR      54  30  39 N3        30.06F
$$

LSZ147-162-252200-
LAKE SUPERIOR

STATION/POSITION TIME  TEMP    WIND        PRES    WAVE
                       AIR SEA DIR/SP/G            HT/PER
                 (UTC) (F)     (DEG/KT/KT) (MB)    (FT/S)
DEVILS ISLAND    2100   40     340/  4/  6 1019.0F
SAXON HARBOR     2040   38      10/  1/  3 1019.0F
$$

LMZ867-665-643>646-252200-
LAKE MICHIGAN

STATION/POSITION TIME  TEMP    WIND        PRES    WAVE
                       AIR SEA DIR/SP/G            HT/PER
                 (UTC) (F)     (DEG/KT/KT) (MB)    (FT/S)
NORTHPORT PIER   2040   42                 1017.9F
KEWAUNEE LAKESHO 2042   44     110/  4/  6 1017.9F
SHEBOYGAN LAKESH 2100   38      50/  2/  3 1018.8F
PORT WASHINGTON  2040   42      50/  9/ 14 1019.3F
MILWAUKEE LAKESH 2050   39      40/  7/  7   N/A
KENOSHA   LAKESH 2100   39                 1018.3
$$

TC  - TEMPERATURE IN CELSIUS
VSB - VISIBILITY IN STATUTE MILES
WCI - WIND CHILL INDEX
HX  - HEAT INDEX





USA.gov is the U.S. government's official web portal to all federal, state and local government web resources and services.